Location: Fort Worth, Tx
(32.7431°N, 97.3695°W)
Time: 10:56:52
(UTC-04:00)

A-11 Canister half - Pass Details

Date: 15 August 2024
Orbit: 1524 x 1684 km, 47.3° (Epoch: 13 September)

Event Time Altitude Azimuth Distance (km) Brightness Sun altitude
Rises 23:59:29 0° 232° (SW) 4,851 11.7 -30.5°
Reaches altitude 10° 00:02:34 10° 232° (SW) 3,884 11.1 -31.0°
Maximum altitude 00:12:37 86° 322° (NW) 1,681 9.0 -32.4°
Drops below altitude 10° 00:22:51 10° 52° (NE) 3,949 11.1 -33.8°
Sets 00:26:01 0° 53° (NE) 4,935 11.6 -34.2°
